FW0879 Weather Reports


time (UTC)temp
C
wind
direction
speed
KPH
gust
KPH
rain 1hr
cm
rain 24hr
cm
rain mn
cm
humidity
%
barometer
mb
20260508071402 15 225 3.2 8.0 0.00 2.44 0.03 84 1011.1
20260508070402 15 254 4.8 9.7 0.00 2.44 0.03 83 1010.9
20260508065903 15 243 4.8 8.0 0.00 2.44 0.03 83 1011.1
20260508065402 15 254 4.8 4.8 0.00 2.44 0.03 83 1011.0
20260508064902 15 264 3.2 4.8 0.00 2.44 0.03 83 1011.0
20260508064403 15 259 4.8 9.7 0.00 2.44 0.03 83 1011.0
20260508063902 15 249 4.8 8.0 0.00 2.44 0.03 83 1011.0
20260508063402 15 254 3.2 4.8 0.00 2.44 0.03 83 1011.1
20260508062902 15 229 4.8 9.7 0.00 2.44 0.03 83 1011.0
20260508062402 15 225 4.8 9.7 0.00 2.44 0.03 83 1010.8
20260508061902 14 230 3.2 8.0 0.00 2.44 0.03 82 1010.6
20260508055902 14 257 4.8 8.0 0.00 2.44 0.03 83 1010.5
20260508055403 14 257 4.8 9.7 0.00 2.44 0.03 84 1010.5
20260508054903 14 254 4.8 8.0 0.00 2.44 0.03 83 1010.6
20260508054402 14 257 4.8 8.0 0.00 2.44 0.03 83 1010.5
20260508053902 14 253 3.2 4.8 0.00 2.44 0.03 83 1010.4
20260508053402 14 222 4.8 8.0 0.00 2.44 0.03 82 1010.4
20260508052402 14 213 3.2 4.8 0.00 2.44 0.03 83 1010.1
20260508051402 14 225 4.8 8.0 0.00 2.44 0.03 82 1010.1
20260508050903 14 228 4.8 8.0 0.00 2.44 0.03 82 1010.0
20260508050402 14 236 3.2 4.8 0.00 2.44 0.03 81 1009.9
20260508045903 15 230 4.8 8.0 0.00 2.44 0.03 81 1009.9
20260508045402 15 220 4.8 8.0 0.00 2.44 0.03 80 1009.9
20260508044902 14 215 4.8 8.0 0.00 2.44 0.03 81 1009.8
20260508044403 14 226 4.8 8.0 0.00 2.44 0.03 82 1009.8
20260508042402 14 229 3.2 4.8 0.00 2.44 0.03 82 1009.7
20260508041902 14 223 4.8 8.0 0.00 2.44 0.03 82 1009.5
20260508041403 14 240 4.8 4.8 0.00 2.44 0.03 81 1009.6
20260508040903 14 243 3.2 4.8 0.00 2.44 0.03 80 1009.6
20260508040403 14 237 4.8 4.8 0.00 2.44 0.03 80 1009.7
20260508035402 14 224 3.2 4.8 0.00 2.44 0.03 81 1010.0
20260508034902 14 209 4.8 8.0 0.00 2.44 0.03 81 1010.0
20260508034402 14 207 3.2 4.8 0.00 2.44 0.03 81 1009.8
20260508033902 14 210 3.2 4.8 0.00 2.44 0.03 81 1009.8
20260508033402 14 216 3.2 4.8 0.00 2.44 0.03 81 1009.8
20260508032903 14 223 6.4 9.7 0.00 2.44 0.03 81 1009.7
20260508031902 14 222 4.8 8.0 0.00 2.44 0.03 83 1009.9
20260508031403 14 220 4.8 8.0 0.00 2.44 0.03 83 1009.8
20260508030903 14 215 4.8 8.0 0.00 2.44 0.03 83 1009.9
20260508025902 14 256 1.6 4.8 0.00 2.44 0.03 82 1009.7
20260508025402 14 236 1.6 4.8 0.00 2.44 0.03 82 1010.0
20260508024903 14 249 3.2 9.7 0.00 2.44 0.03 83 1010.1
20260508024403 14 245 3.2 4.8 0.00 2.44 0.03 84 1010.2
20260508023403 14 194 4.8 8.0 0.03 2.44 0.03 84 1010.1
20260508022403 14 212 3.2 8.0 0.03 2.44 0.03 84 1010.1
20260508021903 14 198 1.6 4.8 0.03 2.44 0.03 84 1010.2
20260508021403 14 206 3.2 4.8 0.03 2.44 0.03 83 1010.2
20260508020903 14 209 3.2 4.8 0.03 2.44 0.03 83 1010.2
20260508020403 14 204 4.8 4.8 0.03 2.44 0.03 83 1010.1
20260508015903 14 221 3.2 4.8 0.03 2.44 0.03 82 1010.2
20260508015402 14 217 3.2 8.0 0.03 2.44 0.03 82 1010.1
20260508014903 14 204 4.8 8.0 0.03 2.44 0.03 83 1010.2
20260508014403 13 199 4.8 8.0 0.03 2.44 0.03 83 1010.3
20260508013902 14 201 1.6 4.8 0.00 2.41 0.00 83 1010.3
20260508013402 14 248 0.0 3.2 0.00 2.41 0.00 82 1010.4
20260508012902 14 248 1.6 3.2 0.00 2.41 0.00 82 1010.6
20260508012403 14 234 1.6 4.8 0.00 2.41 0.00 82 1010.6
20260508011903 14 240 3.2 4.8 0.00 2.41 0.00 81 1010.7
20260508010903 14 250 1.6 3.2 0.00 2.41 0.00 83 1010.8
20260508010402 14 250 1.6 3.2 0.00 2.41 0.00 83 1010.9
20260508005902 14 231 1.6 4.8 0.00 2.41 0.00 82 1010.8
20260508005403 14 233 3.2 4.8 0.00 2.41 0.00 82 1010.8
20260508004903 14 236 4.8 4.8 0.00 2.41 0.00 83 1010.8
20260508004402 14 218 4.8 8.0 0.00 2.41 0.00 83 1010.8
20260508003902 14 229 3.2 8.0 0.00 2.41 0.00 84 1010.9
20260508003402 14 250 4.8 9.7 0.00 2.41 0.00 84 1010.8
20260508002902 13 222 4.8 8.0 0.00 2.41 0.00 84 1010.7
20260508001903 13 245 4.8 8.0 0.00 2.41 0.00 86 1010.9
20260508001402 13 247 4.8 8.0 0.00 2.41 0.00 86 1010.9
20260508000404 13 245 4.8 8.0 0.00 2.41 0.00 86 1010.9
20260507235902 13 253 3.2 4.8 0.00 2.41 0.00 86 1010.9
20260507234903 13 285 3.2 4.8 0.00 2.41 0.00 86 1011.0
20260507234402 13 292 3.2 4.8 0.00 2.41 0.00 86 1011.0
20260507233902 13 270 4.8 4.8 0.00 2.41 0.00 86 1011.0
20260507233403 13 289 3.2 4.8 0.00 2.41 0.00 85 1011.0
20260507232902 13 259 8.0 8.0 0.00 2.41 0.00 85 1010.9
20260507232402 13 254 4.8 8.0 0.00 2.41 0.00 86 1011.0
20260507231903 13 263 3.2 8.0 0.00 2.41 0.00 86 1011.0
20260507230902 13 253 4.8 9.7 0.00 2.41 0.00 86 1011.0
20260507230402 13 255 4.8 9.7 0.00 2.41 0.00 86 1011.1
20260507225903 13 276 3.2 8.0 0.00 2.41 0.00 86 1011.1
20260507225403 13 256 4.8 8.0 0.00 2.41 0.00 86 1011.1
20260507224903 14 249 4.8 8.0 0.00 2.41 0.00 85 1011.1
20260507224403 14 243 1.6 4.8 0.00 2.41 0.00 85 1011.1
20260507223402 14 237 1.6 4.8 0.00 2.41 0.00 86 1011.1
20260507222903 13 238 1.6 4.8 0.00 2.41 0.00 87 1011.1
20260507222403 14 248 3.2 4.8 0.00 2.41 0.00 86 1011.1
20260507221902 14 246 1.6 4.8 0.00 2.41 0.00 86 1011.1
20260507221402 14 249 3.2 4.8 0.00 2.41 0.00 86 1011.1
20260507220402 14 213 1.6 4.8 0.00 2.41 0.00 87 1011.2
20260507215902 14 213 3.2 4.8 0.00 2.41 2.41 87 1011.2
20260507215403 14 230 3.2 4.8 0.00 2.41 2.41 87 1011.3
20260507214903 14 243 3.2 4.8 0.00 2.41 2.41 87 1011.3
20260507214403 14 232 3.2 4.8 0.00 2.41 2.41 87 1011.5
20260507213903 13 238 3.2 8.0 0.00 2.41 2.41 87 1011.4
20260507213403 13 233 3.2 9.7 0.00 2.41 2.41 88 1011.5
20260507212902 13 224 3.2 9.7 0.00 2.41 2.41 88 1011.5
20260507212402 13 214 6.4 11.3 0.00 2.41 2.41 88 1011.6
20260507211902 13 240 6.4 11.3 0.03 2.41 2.41 88 1011.5
20260507211403 13 221 8.0 12.9 0.03 2.41 2.41 88 1011.5
20260507210902 13 207 4.8 11.3 0.03 2.41 2.41 89 1011.5
20260507210402 13 214 4.8 9.7 0.05 2.41 2.41 90 1011.3
20260507205903 13 231 3.2 8.0 0.05 2.41 2.41 90 1011.3
20260507205403 13 218 4.8 9.7 0.05 2.41 2.41 90 1011.2
20260507204903 13 233 8.0 9.7 0.08 2.41 2.41 90 1011.2
20260507204403 13 246 4.8 11.3 0.08 2.41 2.41 90 1011.2
20260507203902 13 273 6.4 12.9 0.08 2.41 2.41 90 1011.2
20260507202903 13 287 8.0 14.5 0.10 2.41 2.41 89 1011.1
20260507202402 13 262 9.7 14.5 0.13 2.41 2.41 89 1010.8
20260507201902 13 254 9.7 12.9 0.13 2.39 2.39 88 1010.7
20260507200903 14 260 9.7 14.5 0.20 2.39 2.39 87 1010.7
20260507200403 14 263 8.0 9.7 0.20 2.39 2.39 87 1010.7
20260507195903 14 259 4.8 8.0 0.23 2.39 2.39 87 1010.6
20260507195403 14 311 3.2 4.8 0.25 2.39 2.39 86 1010.7
20260507193903 15 216 1.6 4.8 0.30 2.34 2.34 85 1010.7
20260507193403 15 155 0.0 1.6 0.38 2.34 2.34 85 1010.7
20260507192902 15 155 1.6 8.0 0.41 2.31 2.31 84 1010.6
20260507192403 14 132 1.6 9.7 0.43 2.29 2.29 85 1010.7
20260507191902 14 108 4.8 12.9 0.46 2.26 2.26 86 1010.7
20260507191403 14 96 1.6 11.3 0.46 2.21 2.21 87 1010.7
20260507190903 14 195 1.6 9.7 0.53 2.21 2.21 86 1010.5
20260507190403 14 247 8.0 19.3 0.56 2.18 2.18 85 1010.2
20260507185902 14 247 8.0 19.3 0.58 2.16 2.16 84 1010.2
20260507185403 15 254 6.4 11.3 0.66 2.13 2.13 82 1010.2
20260507184903 15 154 4.8 12.9 0.86 2.11 2.11 81 1010.2
20260507184403 14 153 14.5 22.5 0.91 2.06 2.06 81 1010.0
20260507183903 14 144 16.1 20.9 0.94 2.03 2.03 83 1009.9
20260507183403 14 132 11.3 24.1 1.09 1.96 1.96 85 1010.1
20260507182903 13 148 16.1 22.5 1.42 1.88 1.88 85 1010.1
20260507182403 14 140 16.1 22.5 1.45 1.85 1.85 86 1009.9
20260507181903 14 105 17.7 32.2 1.50 1.80 1.80 86 1010.0
20260507181402 14 135 24.1 33.8 1.47 1.75 1.75 86 1009.8
20260507180903 14 125 22.5 35.4 1.42 1.68 1.68 85 1009.7
20260507180403 14 133 25.7 35.4 1.40 1.63 1.63 87 1009.6
20260507175903 14 140 29.0 40.2 1.35 1.57 1.57 87 1009.4
20260507175403 14 118 27.4 35.4 1.24 1.47 1.47 89 1009.7
20260507174903 14 122 14.5 25.7 1.04 1.24 1.24 89 1009.8
20260507174402 14 115 14.5 24.1 1.07 1.17 1.17 89 1010.0
20260507173903 14 129 20.9 33.8 1.07 1.07 1.07 87 1009.3
20260507173402 15 125 22.5 33.8 0.84 0.86 0.86 83 1009.7
20260507172903 16 69 14.5 22.5 0.43 0.46 0.46 81 1009.5
20260507171903 17 80 12.9 24.1 0.28 0.30 0.30 80 1009.1
20260507171403 18 57 9.7 20.9 0.25 0.28 0.28 84 1008.9
20260507170903 17 12 14.5 22.5 0.23 0.25 0.25 83 1008.7
20260507165903 17 7 16.1 29.0 0.23 0.25 0.25 82 1008.7
20260507165402 17 17 9.7 16.1 0.23 0.25 0.25 85 1008.8
20260507164403 18 44 17.7 27.4 0.08 0.10 0.10 79 1008.9
20260507163903 18 23 16.1 25.7 0.00 0.03 0.03 78 1008.8
20260507163403 18 17 14.5 22.5 0.00 0.03 0.03 78 1008.8
20260507162903 18 11 11.3 24.1 0.00 0.03 0.03 77 1008.6
20260507162403 18 22 14.5 24.1 0.00 0.03 0.03 77 1008.5
20260507161903 18 21 14.5 20.9 0.00 0.03 0.03 76 1008.4
20260507161403 18 34 12.9 19.3 0.00 0.03 0.03 75 1008.4
20260507160902 18 27 12.9 20.9 0.00 0.03 0.03 75 1008.4
20260507160403 18 31 12.9 20.9 0.00 0.03 0.03 75 1008.3
20260507155902 18 13 9.7 20.9 0.00 0.03 0.03 75 1008.3
20260507155403 18 8 8.0 14.5 0.00 0.03 0.03 76 1008.3
20260507154402 18 30 14.5 22.5 0.00 0.03 0.03 75 1008.3
20260507153903 18 45 12.9 19.3 0.00 0.03 0.03 76 1008.2
20260507153403 18 42 12.9 19.3 0.00 0.03 0.03 75 1008.2
20260507152902 18 48 9.7 19.3 0.00 0.03 0.03 75 1008.3
20260507152403 18 31 12.9 19.3 0.00 0.03 0.03 75 1008.2
20260507151903 18 32 8.0 16.1 0.00 0.03 0.03 76 1008.2
20260507151402 18 8 12.9 20.9 0.00 0.03 0.03 76 1008.2
20260507150403 18 34 14.5 19.3 0.00 0.03 0.03 76 1008.2
20260507145404 19 33 8.0 16.1 0.00 0.03 0.03 74 1008.3
20260507144903 19 356 8.0 16.1 0.00 0.03 0.03 74 1008.3
20260507144403 19 31 8.0 16.1 0.00 0.03 0.03 74 1008.4
20260507143903 19 58 8.0 19.3 0.00 0.03 0.03 74 1008.4
20260507142903 19 32 9.7 19.3 0.00 0.03 0.03 73 1008.6
20260507142402 19 53 8.0 19.3 0.00 0.03 0.03 74 1008.6
20260507141902 19 54 9.7 19.3 0.00 0.03 0.03 72 1008.6
20260507141403 19 41 9.7 16.1 0.00 0.03 0.03 73 1008.7
20260507140903 19 39 11.3 19.3 0.00 0.03 0.03 72 1008.7
20260507140403 19 63 14.5 22.5 0.00 0.03 0.03 72 1008.7
20260507135903 19 33 12.9 19.3 0.00 0.03 0.03 72 1008.7
20260507135403 19 16 9.7 19.3 0.00 0.03 0.03 73 1008.8
20260507134902 19 70 9.7 19.3 0.00 0.03 0.03 73 1008.9
20260507133903 19 61 11.3 16.1 0.00 0.03 0.03 74 1008.8
20260507133403 19 30 11.3 19.3 0.00 0.03 0.03 74 1008.9
20260507132902 19 39 11.3 19.3 0.03 0.03 0.03 73 1008.9
20260507132403 18 19 11.3 19.3 0.03 0.03 0.03 74 1009.1
20260507131903 18 29 12.9 19.3 0.03 0.03 0.03 74 1009.2
20260507131403 19 70 11.3 19.3 0.03 0.03 0.03 73 1009.2
20260507130403 18 17 11.3 20.9 0.03 0.03 0.03 75 1009.5
20260507125903 18 28 14.5 22.5 0.03 0.03 0.03 76 1009.5
20260507125403 18 27 11.3 22.5 0.03 0.03 0.03 77 1009.5
20260507124903 18 28 9.7 16.1 0.03 0.03 0.03 79 1009.5
20260507124403 18 35 17.7 20.9 0.03 0.03 0.03 78 1009.5
20260507123402 18 38 14.5 20.9 0.03 0.03 0.03 78 1009.5
20260507122903 18 33 16.1 25.7 0.00 0.00 0.00 75 1009.6
20260507122402 18 33 16.1 20.9 0.00 0.00 0.00 76 1009.6
20260507121903 19 28 14.5 20.9 0.00 0.00 0.00 75 1009.6
20260507121402 19 42 9.7 16.1 0.00 0.00 0.00 73 1009.6
20260507120902 19 3 8.0 16.1 0.00 0.00 0.00 74 1009.6
20260507120403 20 50 14.5 22.5 0.00 0.00 0.00 73 1009.7
20260507115903 20 40 8.0 19.3 0.00 0.00 0.00 73 1009.7
20260507115402 19 22 8.0 19.3 0.00 0.00 0.00 74 1009.9
20260507114903 19 41 8.0 19.3 0.00 0.00 0.00 74 1010.0
20260507114403 19 63 11.3 19.3 0.00 0.00 0.00 74 1009.9
20260507113903 19 35 9.7 19.3 0.00 0.00 0.00 73 1010.1
20260507113403 19 28 6.4 16.1 0.00 0.00 0.00 74 1010.1
20260507112403 19 59 9.7 19.3 0.00 0.00 0.00 73 1010.1
20260507111904 19 41 8.0 12.9 0.00 0.00 0.00 73 1010.2
20260507111403 19 7 6.4 16.1 0.00 0.00 0.00 73 1010.2
20260507110903 19 2 4.8 16.1 0.00 0.00 0.00 75 1010.3
20260507110402 19 52 6.4 12.9 0.00 0.00 0.00 74 1010.2
20260507105903 19 41 8.0 14.5 0.00 0.00 0.00 74 1010.2
20260507104903 19 61 4.8 14.5 0.00 0.00 0.00 75 1010.3
20260507104403 18 55 8.0 16.1 0.00 0.00 0.00 75 1010.2
20260507103903 19 57 8.0 12.9 0.00 0.00 0.00 74 1010.3
20260507103403 19 72 8.0 12.9 0.00 0.00 0.00 74 1010.4
20260507102903 19 65 8.0 12.9 0.00 0.00 0.00 76 1010.4
20260507101903 19 40 9.7 12.9 0.00 0.00 0.00 75 1010.3
20260507100403 19 52 8.0 11.3 0.00 0.00 0.00 75 1010.4
20260507095403 19 1 11.3 14.5 0.00 0.00 0.00 76 1010.5
20260507094903 19 53 8.0 12.9 0.00 0.00 0.00 75 1010.4
20260507094403 19 68 6.4 11.3 0.00 0.00 0.00 75 1010.6
20260507093904 19 33 6.4 14.5 0.00 0.00 0.00 73 1010.5
20260507093403 19 15 9.7 14.5 0.00 0.00 0.00 74 1010.6
20260507092903 19 31 3.2 11.3 0.00 0.00 0.00 76 1010.6
20260507092403 18 12 8.0 16.1 0.00 0.00 0.00 76 1010.5
20260507091903 18 14 9.7 14.5 0.00 0.00 0.00 76 1010.4
20260507091403 18 23 9.7 14.5 0.00 0.00 0.00 76 1010.3
20260507090903 18 11 8.0 11.3 0.00 0.00 0.00 76 1010.5
20260507090403 18 345 8.0 12.9 0.00 0.00 0.00 77 1010.6
20260507085903 18 31 9.7 16.1 0.00 0.00 0.00 77 1010.6
20260507084903 18 37 8.0 12.9 0.00 0.00 0.00 75 1010.6
20260507084403 18 22 3.2 12.9 0.00 0.00 0.00 75 1010.6
20260507083903 18 347 6.4 12.9 0.00 0.00 0.00 75 1010.5
20260507083403 18 342 8.0 12.9 0.00 0.00 0.00 75 1010.4
20260507082903 18 304 4.8 9.7 0.00 0.00 0.00 75 1010.4
20260507082403 18 314 6.4 12.9 0.00 0.00 0.00 75 1010.3
20260507081903 18 334 6.4 12.9 0.00 0.00 0.00 75 1010.2
20260507081403 18 316 8.0 14.5 0.00 0.00 0.00 75 1010.2
20260507080903 18 270 8.0 16.1 0.00 0.00 0.00 75 1010.3
20260507080403 18 306 4.8 16.1 0.00 0.00 0.00 75 1010.2
20260507075903 17 313 6.4 14.5 0.00 0.00 0.00 75 1010.3
20260507075403 17 302 9.7 16.1 0.00 0.00 0.00 75 1010.3
20260507074903 18 289 8.0 14.5 0.00 0.00 0.00 75 1010.2
20260507074403 17 312 6.4 11.3 0.00 0.00 0.00 75 1010.2
20260507073903 17 299 9.7 16.1 0.00 0.00 0.00 75 1010.1
20260507072904 17 286 8.0 12.9 0.00 0.00 0.00 75 1010.1
20260507072403 17 294 6.4 12.9 0.00 0.00 0.00 75 1010.1
20260507071903 17 307 6.4 11.3 0.00 0.00 0.00 75 1010.1